Find Starlink 30103

NORAD ID: 56290 Int'l Des: 2023-056 Owner: SPXS Country: US Constellation: starlink operational
LEOCIRCULAR

Current View

Loading 3D Globe...

About Starlink 30103

Starlink 30103 (NORAD 56290) is a starlink constellation satellite (v2 mini) launched Apr 19, 2023 by SPXS of US. It operates in LEO, CIRCULAR orbit with a mass of 730.00 kg.

Upcoming Passes

Passes for default location (London). Set your location on the main map for personalized predictions.

Altitude History

Loading altitude history...

Two-Line Element Set

1 56290U 23056E 26263.17488742 .00002787 00000-0 11071-3 0 9995
2 56290 42.9983 190.5997 0000447 165.7046 194.3819 15.27587841189789
Epoch: Sep 20, 2026 • Age: 15 hours

Current Status

Altitude 485.1 km
Apogee / Perigee N/A
Velocity 7.62 km/s
Sub-Earth Point -12.81°S, 93.62°E
Launch Date Apr 19, 2023
Age 3.4 years
Type internet

Technical Details

Classification Payload
Mass 730.00 kg
Dry Mass 700.00 kg
Length 0.30 m
Span 29.00 m
Shape ? Box + pan
Manufacturer SPXS
Bus Type Starlink V2M
Phase Status In Orbit
Owner/State SPXS/US

Most Searched